Change the Weather History Date:

Thursday, September 5, 2013

  Actual Average Record
Temperature  
Mean Temperature 64 °F 63 °F  
Max Temperature 67 °F 78 °F 102 °F (1944)
Min Temperature 60 °F 48 °F 34 °F (1930)
Degree Days  
Heating Degree Days 1 3  
Month to date heating degree days 1 15  
Since 1 July heating degree days 36 122  
Cooling Degree Days 0 1  
Month to date cooling degree days 18 7  
Year to date cooling degree days 264 185  
Growing Degree Days 13 (Base 50)    
Moisture  
Dew Point 59 °F    
Average Humidity 86    
Maximum Humidity 93    
Minimum Humidity 78    
Precipitation  
Precipitation 0.77 in 0.04 in 0.77 in (2013)
Month to date precipitation 0.84 0.19  
Year to date precipitation 14.46 22.26  
Snow  
Snow 0.00 in - - ()
Month to date snowfall 0.0  
Since 1 July snowfall 0.0  
Since 1 September snowfall 0.0  
Snow Depth 0.00 in    
Sea Level Pressure  
Sea Level Pressure 30.00 in    
Wind  
Wind Speed 3 mph (WNW)    
Max Wind Speed 16 mph    
Max Gust Speed 18 mph    
Visibility 8 miles    
Events Rain , Thunderstorm    
T = Trace of Precipitation, MM = Missing Value Source: NWS Daily Summary

Daily Weather History Graph

Daily Weather History Graph

Search for Another Location

Airport or City:

Trip Planner

Search our weather history database for the weather conditions in past years. The results will help you decide how hot, cold, wet, or windy it might be!

Date:

Astronomy

Sep. 05, 2013 Rise Set
Actual Time 6:38 AM PDT 7:41 PM PDT
Civil Twilight 6:08 AM PDT 8:11 PM PDT
Nautical Twilight 5:31 AM PDT 8:47 PM PDT
Astronomical Twilight 4:53 AM PDT 9:25 PM PDT
Moon 6:59 AM PDT (9/5) 7:31 PM PDT (9/5)
Length of Visible Light 14h 03m
Length of Day
13h 02m
New Moon, 0% of the Moon is Illuminated
Sep 5
New Moon
Sep 12
First Quarter
Sep 19
Full
Sep 26
Last Quarter
Oct 4
New

Hourly Weather History & Observations

Time (PDT) Temp. Dew Point Humidity Pressure Visibility Wind Dir Wind Speed Gust Speed Precip Events Conditions
12:35 AM 64.0 °F 57.0 °F 78% 30.02 in 10.0 mi NW 6.9 mph - N/A Thunderstorm Thunderstorm
12:53 AM 63.0 °F 57.0 °F 81% 30.03 in 8.0 mi NW 6.9 mph - 0.01 in Rain , Thunderstorm Light Thunderstorms and Rain
1:26 AM 62.1 °F 59.0 °F 90% 30.01 in 10.0 mi NNW 6.9 mph - 0.01 in Rain Light Rain
1:53 AM 61.0 °F 57.9 °F 90% 29.99 in 10.0 mi NW 9.2 mph - 0.02 in Rain Light Rain
2:53 AM 61.0 °F 57.9 °F 90% 30.01 in 10.0 mi West 3.5 mph - 0.01 in   Overcast
3:53 AM 60.1 °F 57.9 °F 93% 30.00 in 10.0 mi Calm Calm - 0.01 in   Overcast
4:53 AM 60.1 °F 57.9 °F 93% 29.99 in 10.0 mi NW 4.6 mph - 0.01 in   Mostly Cloudy
5:53 AM 60.1 °F 57.9 °F 93% 29.99 in 10.0 mi West 3.5 mph - N/A   Overcast
6:53 AM 60.1 °F 57.9 °F 93% 29.99 in 10.0 mi SW 3.5 mph - N/A   Overcast
7:53 AM 62.1 °F 57.9 °F 86% 30.00 in 10.0 mi Calm Calm - N/A   Overcast
8:53 AM 63.0 °F 59.0 °F 87% 30.00 in 10.0 mi Calm Calm - N/A   Overcast
9:53 AM 64.0 °F 59.0 °F 84% 30.00 in 10.0 mi Calm Calm - N/A   Overcast
9:56 AM 64.0 °F 59.0 °F 84% 30.00 in 10.0 mi Calm Calm - N/A   Overcast
10:53 AM 64.9 °F 60.1 °F 84% 30.00 in 10.0 mi West 3.5 mph - N/A   Overcast
11:53 AM 66.0 °F 59.0 °F 78% 29.99 in 10.0 mi NW 5.8 mph - N/A   Overcast
12:53 PM 66.9 °F 59.0 °F 76% 29.99 in 10.0 mi NE 4.6 mph - N/A   Overcast
1:53 PM 66.0 °F 59.0 °F 78% 29.99 in 10.0 mi Calm Calm - N/A   Overcast
2:53 PM 66.9 °F 59.0 °F 76% 29.98 in 10.0 mi NW 8.1 mph - N/A   Overcast
3:53 PM 66.9 °F 59.0 °F 76% 29.96 in 10.0 mi West 5.8 mph - N/A   Overcast
4:53 PM 66.9 °F 59.0 °F 76% 29.97 in 10.0 mi West 4.6 mph - N/A   Overcast
5:53 PM 66.0 °F 60.1 °F 81% 29.99 in 4.0 mi SE 6.9 mph - 0.00 in Rain Light Rain
6:03 PM 64.9 °F 60.1 °F 84% 29.99 in 1.8 mi SE 8.1 mph - 0.05 in Rain Heavy Rain
6:30 PM 63.0 °F 61.0 °F 93% 29.99 in 1.5 mi SE 4.6 mph - 0.28 in Rain Rain
6:53 PM 62.1 °F 60.1 °F 93% 29.98 in 2.0 mi Calm Calm - 0.31 in Rain Rain
7:15 PM 62.1 °F 60.1 °F 93% 29.98 in 2.0 mi NNW 4.6 mph - 0.06 in Rain Light Rain
7:53 PM 62.1 °F 60.1 °F 93% 29.99 in 2.0 mi West 3.5 mph - 0.06 in   Overcast
7:59 PM 62.1 °F 60.1 °F 93% 29.99 in 6.0 mi Calm Calm - 0.00 in Rain Light Rain
8:44 PM 62.1 °F 60.1 °F 93% 30.00 in 4.0 mi Calm Calm - 0.04 in Rain Light Rain
8:53 PM 62.1 °F 60.1 °F 93% 30.00 in 2.0 mi Calm Calm - 0.05 in Rain Light Rain
9:53 PM 62.1 °F 60.1 °F 93% 30.02 in 10.0 mi Calm Calm - 0.21 in   Overcast
10:27 PM 61.0 °F 60.1 °F 97% 30.03 in 3.0 mi SW 4.6 mph - 0.01 in Rain Light Rain
10:53 PM 61.0 °F 60.1 °F 97% 30.03 in 5.0 mi SW 6.9 mph - 0.02 in Rain Light Rain
11:53 PM 61.0 °F 59.0 °F 93% 30.01 in 10.0 mi Calm Calm - 0.00 in Rain Light Rain